STARLINK-35236, 66008

Orbit data source: Space-Track

STARLINK-35236, 66008 is a payload satellite owned by SpaceX/Seattle (US) in LEO that was launched on Thu, 16 Oct 2025 UTC via an FALCON 9 launch vehicle from the Air Force Eastern Test Range (AFETR). Payload-class satellites include a variety of spacecraft equipped with specific instruments for various scientific and technological missions. These include communications satellites like Starlink; space stations such as the ISS; scientific satellites like the Hubble; Earth observation satellites from companies like Planet Labs, Umbra, and HawkEye 360; GPS; miniature CubeSats for education and research; and military/defense satellites.

Loading next visibility...
Identifier
66008, 2025-232D
Orbit
LEO
Country
Flag of USUS
Related business
Manufacturer
SpaceX/Seattle
Mission
Operational spacecraft
Bus & Motor
STARLINK V2MO, Unknown motor
Mass
575 kg wet, ~530 kg dry
Launch date (UTC)
2025-10-16 (1 week ago)
Launch vehicle
FALCON 9
Launch site
Air Force Eastern Test Range (AFETR)
Object type
Payload
Rocket body
Debris
Shape & HBR
Unknown shape, 17.7 m
Radar Cross Section
RCS unknown

Expand to show TLE details & history
Last TLE update: 8 hours ago

TLE from 8 hours ago
0 STARLINK-35236
1 66008U 25232D   25298.91668981 -.01409372  00000-0 -63500-2 0  9992
2 66008  53.1554  15.2504 0001112  54.0777  56.6370 15.86224336  1870
Epoch: 2025-10-25T22:00Z
TLE epoch observation values (Epoch: 2025-10-25T22:00:01.999Z)
Latitude
48.60922°
Longitude
132.98657°
Altitude
317.951 km
Speed
7.724 km/s
True Right ascension
09h 10m 08s
True Declination
48° 25' 38"
Sunlit
Object was in daylight at epoch
Visualization orbit readout
Latitude
Unknown
Longitude
Unknown
Altitude
Unknown
Speed
Unknown
Apparent Right ascension
Unknown
Apparent Declination
Unknown
Sunlit
N/A
Visualization observer readout
Local Sidereal Time
01:16:02
Azimuth
Unknown
Elevation
Unknown
Doppler factor
Unknown
Orbital elements
Apogee altitude
313.887 km
Perigee altitude
312.399 km
Semi-major axis
6,691.28 km
Eccentricity
0.00011
Inclination
53.1554°
RAAN
15.2504°
Arg. of periapsis
54.0777°
True anomaly
56.64764°
Mean anomaly
56.637°
Eccentric anomaly
56.64232°
Mean motion
3.96533 °/min
Orbital period
90.79 mins
BSTAR
-0.00635
Loading maneuver chart data...
Computing Atmospheric mass density...
Loading historical data...
Loading historical data...
Loading historical data...
Loading historical data...
Loading historical data...
Loading historical data...
Loading historical data...

Documentation

Showing up to 5 results
|